TimeEST,TemperatureF,Dew PointF,Humidity,Sea Level PressureIn,VisibilityMPH,Wind Direction,Wind SpeedMPH,Gust SpeedMPH,PrecipitationIn,Events,Conditions,WindDirDegrees,DateUTC
12:15 AM,17.6,8.6,68,30.51,10.0,Calm,Calm,-,N/A,,Clear,0,2013-01-25 05:15:00
12:35 AM,17.6,10.4,73,30.49,10.0,Calm,Calm,-,N/A,,Clear,0,2013-01-25 05:35:00
12:55 AM,17.6,8.6,68,30.48,10.0,Calm,Calm,-,N/A,,Clear,0,2013-01-25 05:55:00
1:15 AM,15.8,8.6,73,30.49,10.0,Calm,Calm,-,N/A,,Clear,0,2013-01-25 06:15:00
1:35 AM,17.6,10.4,73,30.47,10.0,Calm,Calm,-,N/A,,Clear,0,2013-01-25 06:35:00
1:55 AM,17.6,10.4,73,30.44,10.0,East,3.5,-,N/A,,Clear,80,2013-01-25 06:55:00
2:15 AM,19.4,8.6,63,30.44,10.0,ENE,3.5,-,N/A,,Clear,70,2013-01-25 07:15:00
2:55 AM,19.4,10.4,68,30.41,10.0,ENE,3.5,-,N/A,,Clear,70,2013-01-25 07:55:00
3:15 AM,19.4,8.6,63,30.41,10.0,East,4.6,-,N/A,,Clear,80,2013-01-25 08:15:00
3:55 AM,19.4,8.6,63,30.39,10.0,East,5.8,-,N/A,,Clear,90,2013-01-25 08:55:00
4:15 AM,19.4,8.6,63,30.38,10.0,ENE,5.8,-,N/A,,Clear,70,2013-01-25 09:15:00
4:35 AM,21.2,8.6,58,30.37,10.0,East,4.6,-,N/A,,Clear,100,2013-01-25 09:35:00
4:55 AM,21.2,8.6,58,30.35,10.0,East,5.8,-,N/A,,Clear,80,2013-01-25 09:55:00
5:15 AM,21.2,8.6,58,30.35,10.0,East,4.6,-,N/A,,Clear,90,2013-01-25 10:15:00
5:55 AM,21.2,6.8,54,30.32,10.0,East,5.8,-,N/A,,Clear,100,2013-01-25 10:55:00
6:15 AM,21.2,6.8,54,30.30,10.0,East,6.9,-,N/A,,Clear,80,2013-01-25 11:15:00
6:35 AM,21.2,5.0,50,30.28,10.0,East,9.2,17.3,N/A,,Clear,90,2013-01-25 11:35:00
6:55 AM,21.2,5.0,50,30.27,10.0,East,6.9,-,N/A,,Clear,80,2013-01-25 11:55:00
7:15 AM,21.2,5.0,50,30.27,10.0,East,5.8,-,N/A,,Clear,80,2013-01-25 12:15:00
7:35 AM,21.2,6.8,54,30.26,10.0,East,6.9,-,N/A,,Clear,80,2013-01-25 12:35:00
7:55 AM,21.2,5.0,50,30.25,10.0,East,4.6,-,N/A,,Scattered Clouds,80,2013-01-25 12:55:00
8:15 AM,21.2,5.0,50,30.23,10.0,East,6.9,-,N/A,,Scattered Clouds,80,2013-01-25 13:15:00
8:35 AM,21.2,5.0,50,30.22,10.0,East,5.8,-,N/A,,Clear,90,2013-01-25 13:35:00
8:55 AM,21.2,5.0,50,30.20,10.0,East,4.6,-,N/A,,Scattered Clouds,80,2013-01-25 13:55:00
9:15 AM,21.2,6.8,54,30.20,10.0,East,3.5,-,N/A,,Scattered Clouds,80,2013-01-25 14:15:00
9:35 AM,21.2,6.8,54,30.19,10.0,ENE,6.9,-,N/A,,Clear,70,2013-01-25 14:35:00
9:55 AM,21.2,5.0,50,30.20,10.0,Calm,Calm,-,N/A,,Clear,0,2013-01-25 14:55:00
10:15 AM,21.2,8.6,58,30.21,10.0,Calm,Calm,-,N/A,,Mostly Cloudy,0,2013-01-25 15:15:00
10:35 AM,21.2,10.4,63,30.21,1.8,East,3.5,-,N/A,Snow,Light Snow,90,2013-01-25 15:35:00
10:55 AM,19.4,14.0,80,30.19,0.5,East,3.5,-,N/A,Snow,Light Snow,80,2013-01-25 15:55:00
11:15 AM,19.4,15.8,86,30.16,0.5,East,5.8,-,N/A,Snow,Light Snow,100,2013-01-25 16:15:00
11:35 AM,19.4,15.8,86,30.15,0.8,East,4.6,-,N/A,Snow,Light Snow,100,2013-01-25 16:35:00
11:55 AM,19.4,15.8,86,30.13,1.0,Calm,Calm,-,N/A,Snow,Light Snow,0,2013-01-25 16:55:00
12:15 PM,19.4,15.8,86,30.12,0.8,Calm,Calm,-,N/A,Snow,Light Snow,0,2013-01-25 17:15:00
12:35 PM,21.2,17.6,86,30.11,0.8,Calm,Calm,-,N/A,Snow,Light Snow,0,2013-01-25 17:35:00
12:55 PM,21.2,17.6,86,30.10,0.8,Calm,Calm,-,N/A,Snow,Light Snow,0,2013-01-25 17:55:00
1:15 PM,21.2,17.6,86,30.10,1.0,Calm,Calm,-,N/A,Snow,Light Snow,0,2013-01-25 18:15:00
1:35 PM,21.2,17.6,86,30.09,1.5,Calm,Calm,-,N/A,Snow,Light Snow,0,2013-01-25 18:35:00
1:55 PM,21.2,17.6,86,30.08,5.0,Calm,Calm,-,N/A,,Overcast,0,2013-01-25 18:55:00
2:15 PM,21.2,17.6,86,30.06,2.5,Calm,Calm,-,N/A,,Overcast,0,2013-01-25 19:15:00
2:35 PM,21.2,19.4,93,30.06,2.0,Calm,Calm,-,N/A,Snow,Light Snow,0,2013-01-25 19:35:00
2:55 PM,21.2,19.4,93,30.06,2.0,Calm,Calm,-,N/A,Snow,Light Snow,0,2013-01-25 19:55:00
3:15 PM,21.2,19.4,93,30.05,3.0,Calm,Calm,-,N/A,Snow,Light Snow,0,2013-01-25 20:15:00
3:35 PM,23.0,19.4,86,30.05,7.0,Calm,Calm,-,N/A,,Mostly Cloudy,0,2013-01-25 20:35:00
3:55 PM,23.0,19.4,86,30.06,10.0,Calm,Calm,-,N/A,,Scattered Clouds,0,2013-01-25 20:55:00
4:15 PM,23.0,19.4,86,30.06,7.0,Calm,Calm,-,N/A,,Mostly Cloudy,0,2013-01-25 21:15:00
4:55 PM,23.0,19.4,86,30.06,7.0,Calm,Calm,-,N/A,,Overcast,0,2013-01-25 21:55:00
5:15 PM,23.0,19.4,86,30.07,7.0,Calm,Calm,-,N/A,,Overcast,0,2013-01-25 22:15:00
5:55 PM,23.0,21.2,93,30.08,10.0,SW,3.5,-,N/A,,Overcast,230,2013-01-25 22:55:00
6:15 PM,23.0,21.2,93,30.08,10.0,WSW,5.8,-,N/A,,Overcast,240,2013-01-25 23:15:00
6:35 PM,23.0,21.2,93,30.09,10.0,SW,4.6,-,N/A,,Overcast,230,2013-01-25 23:35:00
6:55 PM,23.0,21.2,93,30.10,10.0,SW,4.6,-,N/A,,Overcast,230,2013-01-25 23:55:00
7:15 PM,23.0,21.2,93,30.10,10.0,WSW,4.6,-,N/A,,Overcast,240,2013-01-26 00:15:00
7:35 PM,23.0,21.2,93,30.11,10.0,WSW,4.6,-,N/A,,Overcast,240,2013-01-26 00:35:00
7:55 PM,23.0,21.2,93,30.11,10.0,SW,5.8,-,N/A,,Overcast,230,2013-01-26 00:55:00
8:15 PM,23.0,21.2,93,30.12,10.0,SW,4.6,-,N/A,,Overcast,230,2013-01-26 01:15:00
8:55 PM,24.8,21.2,86,30.13,10.0,SW,4.6,-,N/A,,Overcast,230,2013-01-26 01:55:00
9:15 PM,24.8,21.2,86,30.12,10.0,SW,4.6,-,N/A,,Overcast,230,2013-01-26 02:15:00
9:35 PM,24.8,21.2,86,30.14,10.0,SW,5.8,-,N/A,,Overcast,230,2013-01-26 02:35:00
9:55 PM,24.8,21.2,86,30.15,7.0,SW,4.6,-,N/A,,Overcast,230,2013-01-26 02:55:00
10:15 PM,24.8,21.2,86,30.16,10.0,SW,5.8,-,N/A,,Mostly Cloudy,230,2013-01-26 03:15:00
10:35 PM,26.6,23.0,86,30.16,10.0,SW,6.9,-,N/A,,Mostly Cloudy,230,2013-01-26 03:35:00
10:55 PM,26.6,23.0,86,30.17,10.0,SW,6.9,-,N/A,,Mostly Cloudy,230,2013-01-26 03:55:00
11:15 PM,26.6,23.0,86,30.18,7.0,WSW,4.6,-,N/A,,Mostly Cloudy,250,2013-01-26 04:15:00
11:35 PM,26.6,23.0,86,30.18,7.0,WSW,5.8,-,N/A,,Mostly Cloudy,240,2013-01-26 04:35:00
11:55 PM,26.6,23.0,86,30.18,7.0,SW,5.8,-,N/A,,Mostly Cloudy,230,2013-01-26 04:55:00